Location: ?????????
(38.0736°N, 23.2119°E)
Time: 05:01:06
(UTC+00:00)

Resurs 1-3 - Pass Details

Date: 18 April 2024
Orbit: 621 x 624 km, 97.7° (Epoch: 23 May)

Event Time Altitude Azimuth Distance (km) Brightness Sun altitude
Rises 17:26:49 0° 154° (SSE) 2,894 6.6 -4.7°
Reaches altitude 10° 17:29:02 10° 149° (SSE) 1,992 5.7 -5.1°
Maximum altitude 17:33:14 51° 74° (ENE) 793 3.8 -5.9°
Drops below altitude 10° 17:37:27 10° 359° (N) 2,005 6.5 -6.7°
Sets 17:39:42 0° 354° (N) 2,915 7.4 -7.1°
